Location: Ahstedt
(52.2048°N, 10.1060°E)
Time: 02:20:36
(UTC+00:00)

Daily predictions for brighter satellites

Satellite Brightness Start Highest point End
(mag) Time Altitude Azimuth Time Altitude Azimuth Time Altitude Azimuth
ATLAS 2AS CENTAUR R/B 3.3 03:16:43 49° NE 03:16:43 49° NE 03:22:51 10° ESE
Cosmos 2344 4.3 03:29:56 37° N 03:30:02 37° N 03:37:24 10° ENE
ACS3 Solar Sail 4.1 03:33:29 10° N 03:33:40 11° N 03:33:40 11° N
Lacrosse 5 rocket 4.0 03:47:59 16° ENE 03:47:59 16° ENE 03:48:51 10° ENE
BREEZE-M DEB (TANK) 4.5 03:54:08 52° SSW 03:54:08 52° SSW 03:58:54 10° SE
Cosmos 1709 Rocket 4.5 04:01:31 46° N 04:01:31 46° N 04:05:46 10° N
Cosmos 2263 Rocket 4.4 04:02:36 14° N 04:02:36 14° N 04:04:19 10° NNE
Cosmos 44 3.6 04:08:32 75° E 04:08:32 75° E 04:13:36 10° SE
Cosmos 2082 Rocket 2.5 04:12:12 46° N 04:13:45 63° NE 04:19:24 10° SE
CZ-4C R/B 3.6 04:15:27 28° NNW 04:17:07 32° NNE 04:23:39 10° ENE
Meteor 2-10 Rocket 4.4 04:13:42 10° S 04:18:39 50° E 04:23:49 10° NNE
COSMOS 2406 4.2 04:15:50 25° N 04:18:44 43° NE 04:24:11 10° ESE
Timation 1 Rocket 4.2 04:19:02 71° SW 04:19:02 71° SW 04:24:50 10° SSE
Cosmos 2278 Rocket 3.0 04:14:42 10° S 04:20:06 49° ESE 04:25:32 10° NE
COSMO-SKYMED 1 2.7 04:23:57 10° SSE 04:28:01 64° ENE 04:28:08 64° ENE
Cosmos 2084 4.3 04:30:17 41° NNE 04:30:17 41° NNE 04:33:08 10° NE
Cosmos 1943 Rocket 2.5 04:25:36 18° S 04:29:38 62° ESE 04:35:05 10° NE
USA 307 3.5 04:32:58 46° SE 04:32:58 46° SE 04:35:55 10° ESE
Cosmos 1763 Rocket 4.1 04:30:51 25° N 04:33:32 52° ENE 04:38:28 10° SE
Cosmos 2297 Rocket 4.5 04:31:50 10° NNW 04:33:40 12° N 04:35:39 10° NNE
Cosmos 1140 Rocket 4.3 04:31:47 10° S 04:36:41 48° ESE 04:41:37 10° NE
H-2A R/B 4.4 04:33:14 10° N 04:33:20 10° N 04:33:20 10° N
Cosmos 540 Rocket 4.1 04:40:31 21° NNW 04:43:46 54° ENE 04:48:45 10° SE
TIMED 4.3 04:44:26 79° SW 04:44:41 87° WNW 04:48:58 10° NNE
Timation 2 Rocket 4.2 04:45:52 10° SSW 04:52:24 75° ESE 04:58:42 10° NE
Cosmos 2181 Rocket 4.2 04:48:09 10° NNW 04:54:15 49° W 05:00:23 10° SSW
Cosmos 1743 Rocket 3.7 04:50:04 10° S 04:54:28 73° E 04:58:53 10° NNE
Meteor 2-13 Rocket 4.5 04:48:49 10° NNW 04:54:44 52° W 05:00:35 10° SSW
Okean 1-7 3.8 04:51:24 10° N 04:55:27 48° ENE 04:59:29 10° SSE
CZ-4 R/B 3.8 04:52:18 10° NNE 04:57:08 87° ESE 05:02:01 10° SSW
Sich 1 4.5 05:01:19 23° NNW 05:01:19 23° NNW 05:03:03 10° N
Cosmos 2184 Rocket 3.8 04:55:23 10° SSW 05:01:34 78° WNW 05:07:46 10° N
SOZ 4.2 05:01:54 74° ESE 05:01:54 74° ESE 05:05:19 10° E
GEOS 3 Rocket 3.6 04:56:28 10° SE 05:01:43 80° SW 05:04:15 33° NW
FengYun 1-2 T 4.3 04:57:17 10° N 05:02:40 51° WNW 05:06:40 18° SW
Lacrosse 4 Rocket 2.6 04:59:17 10° S 05:02:57 39° ESE 05:06:37 10° NE
NOAA 12 4.0 05:02:01 10° NNE 05:07:13 68° WNW 05:12:24 10° SSW
ATLAS 2AS CENTAUR R/B 2.7 05:04:09 31° WNW 05:07:24 60° SW 05:14:01 10° SSE
Cosmos 1484 Rocket 3.5 05:04:37 10° NNE 05:07:56 45° E 05:11:14 10° S
CZ-2C R/B 4.3 05:07:31 10° N 05:08:21 14° NNW 05:08:21 14° NNW
Cosmos 2228 Rocket 3.5 05:07:03 10° N 05:11:25 61° ENE 05:15:44 10° SSE
SJ 16-02 3.9 05:09:46 10° SSE 05:13:04 22° E 05:16:24 10° NE
Cosmos 1805 Rocket 3.7 05:13:22 10° SSW 05:17:38 47° WNW 05:21:55 10° N
RUBIN 8/PSLV 4.4 05:14:19 10° NNE 05:18:33 87° WNW 05:22:45 10° SSW
Cosmos 1844 Rocket 4.4 05:21:05 15° NNW 05:21:46 15° NNW 05:24:59 10° NNE
BREEZE-M DEB (TANK) 3.2 05:22:01 34° SSW 05:22:01 34° SSW 05:24:12 10° SE
Cosmos 407 Rocket 4.1 05:17:11 10° S 05:22:14 59° ESE 05:27:22 10° NNE
SMAP 4.4 05:18:05 10° NNE 05:22:32 42° E 05:26:57 10° S
Lacrosse 5 rocket 1.7 05:21:30 33° NW 05:22:41 45° NNE 05:26:20 10° E
IRS-1D 3.7 05:17:37 10° N 05:22:48 54° WNW 05:27:57 10° SW
Cosmos 921 Rocket 3.2 05:21:33 31° WSW 05:22:59 43° WNW 05:27:03 10° NNE
Cosmos 2074 Rocket 4.1 05:17:38 10° SSW 05:23:48 55° WNW 05:30:00 10° N
Cosmos 1500 Rocket 3.9 05:21:07 10° SW 05:25:15 41° WNW 05:29:27 10° N
CENTAUR R/B 3.6 05:23:20 10° SSW 05:28:37 45° ESE 05:35:13 10° NE
Cosmos 1408 Rocket 4.1 05:28:03 25° WSW 05:29:36 33° WNW 05:33:31 10° N
Cosmos 2227 Rocket 4.4 05:27:52 10° NNW 05:30:00 12° N 05:32:08 10° NNE
Helios 1A Rocket 2.6 05:27:27 10° S 05:30:41 46° WSW 05:31:43 34° NW
Cosmos 1610 Rocket 4.4 05:25:49 10° SSW 05:31:55 73° WNW 05:38:07 10° N
SeaSat 1 4.0 05:28:59 10° NE 05:33:33 37° ESE 05:38:05 10° S
MOS 1 Rocket 4.3 05:29:15 10° NNE 05:33:38 46° E 05:37:48 10° S
Cosmos 1758 3.4 05:31:05 10° SSW 05:34:37 43° WNW 05:38:11 10° N
Nadezhda 3 Rocket 4.3 05:30:27 10° NNW 05:36:19 44° W 05:42:13 10° SSW
Cosmos 468 Rocket 3.9 05:33:17 10° NNW 05:38:24 88° ENE 05:43:35 10° SSE
Cosmos 1703 Rocket 4.3 05:35:37 10° N 05:39:52 53° ENE 05:44:05 10° SSE
SL-12 R/B(2) 4.4 05:36:33 10° SW 05:44:45 88° NW 05:54:59 10° NE
Thor Agena Rocket 4.3 05:40:12 10° NNE 05:45:15 57° ESE 05:50:19 10° S
Cosmos 2344 4.3 05:39:56 14° NW 05:46:14 51° NNE 05:55:18 10° ESE
Cosmos 2263 Rocket 4.4 05:45:45 10° NNW 05:47:47 12° N 05:49:50 10° NNE
IGS 5A 3.4 05:47:57 10° N 05:51:50 52° WNW 05:55:41 10° SSW
Cosmos 2084 Rocket 4.0 05:50:18 21° WNW 05:52:41 40° SW 05:56:38 10° SSE
CZ-2D R/B 3.8 05:50:59 10° NNE 05:54:02 48° E 05:57:03 10° S
Meteor 1-24 Rocket 3.8 05:49:13 10° NNW 05:55:15 75° W 06:01:14 10° S
Meteor 2-5 Rocket 3.8 05:50:40 10° NNW 05:56:32 79° W 06:02:27 10° S
Cosmos 2082 Rocket 3.1 05:54:03 16° WNW 05:57:27 28° WSW 06:02:11 10° SSW
Cosmos 1470 Rocket 3.6 05:53:12 10° S 05:57:29 81° E 06:01:48 10° NNE
SL-23 DEB 3.5 05:57:05 16° WSW 05:59:32 73° S 06:03:04 10° E
USA 307 4.2 05:57:41 16° W 05:59:42 22° SW 06:02:46 10° S
Meteor 2-10 Rocket 4.3 05:56:26 10° WSW 06:00:57 29° WNW 06:05:38 10° N
Cosmos 2366 rocket 4.0 05:56:16 10° S 06:02:30 89° WNW 06:08:50 10° N
Cosmos 1328 3.8 05:59:14 10° NNW 06:02:41 45° W 06:06:08 10° SSW
COSMOS 2406 3.6 05:57:52 11° NW 06:03:06 45° WSW 06:08:30 10° S
COSMO-SKYMED 1 4.0 06:01:07 10° SW 06:03:44 16° W 06:04:27 16° WNW
Cosmos 2278 Rocket 2.7 05:59:02 10° WSW 06:04:19 39° NW 06:09:39 10° NNE
Cosmos 1862 Rocket 4.2 06:00:45 10° NNW 06:04:37 32° W 06:08:26 10° SSW
CZ-4C R/B 3.2 06:00:23 11° NW 06:06:33 62° NE 06:14:40 10° ESE
Cosmos 1656 Rocket 3.8 06:01:38 10° SSW 06:07:20 87° ESE 06:13:00 10° NNE
Cosmos 1461 3.0 06:05:16 10° SSW 06:09:08 72° SE 06:13:02 10° NE
Cosmos 2218 Rocket 4.0 06:04:14 10° S 06:10:33 85° W 06:16:59 10° N
Cosmos 1943 Rocket 2.9 06:08:50 10° WSW 06:13:45 32° NW 06:18:41 10° NNE
Cosmos 1763 Rocket 4.4 06:10:46 10° NW 06:14:58 28° W 06:19:14 10° SSW
YAOGAN 1 4.4 06:11:14 10° NNE 06:15:10 34° E 06:19:04 10° SSE
Cosmos 1140 Rocket 4.1 06:13:59 10° WSW 06:18:34 33° NW 06:23:13 10° NNE
Cosmos 1190 Rocket 4.2 06:13:44 10° SSW 06:18:55 80° ESE 06:24:07 10° NNE
Cosmos 2297 Rocket 4.0 06:15:33 10° NNW 06:19:59 23° NE 06:24:23 10° E
Cosmos 841 Rocket 3.5 06:15:33 10° NNW 06:20:45 83° WSW 06:25:53 10° SSE
Meteor 1-16 Rocket 4.5 06:15:43 10° S 06:21:07 72° E 06:26:27 10° NNE
Gbstr 26 Del rocket 4.1 06:16:33 10° W 06:23:51 85° S 06:29:53 10° E
Cosmos 540 Rocket 4.4 06:20:44 10° NW 06:24:57 27° W 06:29:11 10° SSW
NOSS 2-2 (C) 2.9 06:22:36 10° SW 06:25:47 70° SE 06:28:46 10° NE
Cosmos 1959 Rocket 4.4 06:21:24 10° SSW 06:27:31 70° WNW 06:33:38 10° N
Cosmos 1727 Rocket 4.0 06:21:23 10° N 06:27:37 87° W 06:33:47 10° S
CORIOLIS 4.2 06:23:06 10° N 06:28:30 61° WNW 06:33:49 10° SSW
Cosmos 1833 4.3 06:22:57 10° NNW 06:28:48 87° ENE 06:34:34 10° SSE
Cosmos 1633 Rocket 3.6 06:24:58 10° SW 06:28:58 36° WNW 06:32:58 10° N
Cosmos 2341 Rocket 4.1 06:23:53 10° SSW 06:30:10 57° WNW 06:36:28 10° N
AQUARIUS 4.1 06:26:38 10° NNE 06:31:05 79° WNW 06:35:29 10° SSW
Okean 1-7 4.3 06:29:05 10° NW 06:32:07 20° W 06:35:09 10° SW
Cosmos 1869 Rocket 4.2 06:27:54 10° S 06:32:16 62° E 06:36:40 10° NNE
GP-B 4.1 06:28:02 10° N 06:32:18 49° E 06:36:32 10° SSE
Cosmos 676 Rocket 4.5 06:28:35 10° SSW 06:33:41 68° ESE 06:38:50 10° NNE
USA 234 4.4 06:29:45 10° ENE 06:36:05 48° SE 06:42:23 10° SSW
Cosmos 1953 2.6 06:33:29 10° SW 06:36:55 38° WNW 06:40:25 10° N
ARIANE 5 R/B 2.5 06:33:51 10° NNE 06:38:59 73° WNW 06:44:00 10° SSW
COBE Rocket 4.0 06:34:36 10° S 06:39:34 73° WSW 06:44:42 10° NNW
Lacrosse 4 Rocket 2.0 06:37:17 10° WSW 06:40:50 32° NW 06:44:23 10° NNE
